• en France
  • Liste des pays
  • À 7 jours
  • Température de l'eau
  • Carte satellitaire
  • Carte météo
  • Widgets météo
  • user-avatar
    Se connecter

    Météo par heure à Ngo

    Ce jour, 16 Octobre, Mardi

    Heure Température Précipitation Vent Pression Humidité
    00:00 +24°C° 0 mm 1 m/s 710 mmHg 90%
    01:00 +22°C° 0 mm 0 m/s 709 mmHg 90%
    02:00 +23°C° 0 mm 1 m/s 709 mmHg 90%
    03:00 +23°C° 0 mm 1 m/s 709 mmHg 90%
    04:00 +23°C° 0 mm 1 m/s 709 mmHg 89%
    05:00 +24°C° 0.2 mm 1 m/s 709 mmHg 88%
    06:00 +24°C° 0.2 mm 1 m/s 710 mmHg 86%
    07:00 +25°C° 0.2 mm 1 m/s 710 mmHg 84%
    08:00 +27°C° 1.2 mm 1 m/s 711 mmHg 77%
    09:00 +29°C° 1.2 mm 1 m/s 711 mmHg 70%
    10:00 +30°C° 1.2 mm 1 m/s 711 mmHg 63%
    11:00 +30°C° 1.3 mm 2 m/s 711 mmHg 64%
    12:00 +30°C° 1.3 mm 2 m/s 710 mmHg 66%
    13:00 +30°C° 1.3 mm 2 m/s 709 mmHg 67%
    14:00 +29°C° 1.2 mm 2 m/s 709 mmHg 71%
    15:00 +28°C° 1.2 mm 2 m/s 709 mmHg 74%
    16:00 +28°C° 1.2 mm 2 m/s 708 mmHg 78%
    17:00 +26°C° 0.1 mm 2 m/s 709 mmHg 81%
    18:00 +25°C° 0.1 mm 2 m/s 709 mmHg 85%
    19:00 +24°C° 0.1 mm 2 m/s 709 mmHg 88%
    20:00 +24°C° 0.4 mm 2 m/s 709 mmHg 89%
    21:00 +24°C° 0.4 mm 2 m/s 710 mmHg 90%
    22:00 +24°C° 0.4 mm 2 m/s 710 mmHg 91%
    23:00 +23°C° 0.1 mm 2 m/s 710 mmHg 91%

    Demain, 17 Octobre, Mercredi

    Heure Température Précipitation Vent Pression Humidité
    00:00 +23°C° 0.1 mm 2 m/s 709 mmHg 91%
    01:00 +23°C° 0.1 mm 1 m/s 708 mmHg 91%
    02:00 +23°C° 0 mm 2 m/s 708 mmHg 91%
    03:00 +23°C° 0 mm 2 m/s 708 mmHg 91%
    04:00 +23°C° 0 mm 2 m/s 708 mmHg 92%
    05:00 +23°C° 0 mm 2 m/s 709 mmHg 90%
    06:00 +24°C° 0 mm 2 m/s 709 mmHg 89%
    07:00 +24°C° 0 mm 2 m/s 710 mmHg 87%
    08:00 +26°C° 0.8 mm 2 m/s 710 mmHg 81%
    09:00 +27°C° 0.8 mm 2 m/s 711 mmHg 75%
    10:00 +29°C° 0.8 mm 2 m/s 711 mmHg 68%
    11:00 +30°C° 0.7 mm 2 m/s 710 mmHg 65%
    12:00 +31°C° 0.7 mm 2 m/s 709 mmHg 61%
    13:00 +33°C° 0.7 mm 3 m/s 708 mmHg 57%
    14:00 +31°C° 1.2 mm 2 m/s 708 mmHg 61%
    15:00 +30°C° 1.2 mm 2 m/s 707 mmHg 64%
    16:00 +30°C° 1.2 mm 2 m/s 707 mmHg 67%
    17:00 +28°C° 0.6 mm 2 m/s 707 mmHg 73%
    18:00 +27°C° 0.6 mm 2 m/s 708 mmHg 78%
    19:00 +25°C° 0.6 mm 2 m/s 708 mmHg 84%
    20:00 +25°C° 0.1 mm 2 m/s 709 mmHg 85%
    21:00 +24°C° 0.1 mm 2 m/s 709 mmHg 86%
    22:00 +24°C° 0.1 mm 2 m/s 709 mmHg 88%
    23:00 +24°C° 0.1 mm 2 m/s 709 mmHg 88%

    Après-demain, 18 Octobre, Jeudi

    Heure Température Précipitation Vent Pression Humidité
    00:00 +24°C° 0.1 mm 2 m/s 709 mmHg 89%
    01:00 +23°C° 0.1 mm 2 m/s 708 mmHg 89%
    02:00 +23°C° 0 mm 2 m/s 708 mmHg 89%
    03:00 +23°C° 0 mm 2 m/s 708 mmHg 89%
    04:00 +23°C° 0 mm 2 m/s 708 mmHg 89%
    05:00 +23°C° 0.1 mm 2 m/s 709 mmHg 88%
    06:00 +24°C° 0.1 mm 2 m/s 709 mmHg 88%
    07:00 +24°C° 0.1 mm 2 m/s 710 mmHg 87%
    08:00 +25°C° 1 mm 3 m/s 710 mmHg 84%
    09:00 +26°C° 1 mm 3 m/s 711 mmHg 80%
    10:00 +27°C° 1 mm 3 m/s 711 mmHg 77%
    11:00 +27°C° 2 mm 3 m/s 710 mmHg 75%
    12:00 +28°C° 2 mm 2 m/s 709 mmHg 73%
    13:00 +28°C° 2 mm 2 m/s 708 mmHg 71%
    14:00 +28°C° 0.7 mm 2 m/s 708 mmHg 72%
    15:00 +28°C° 0.7 mm 2 m/s 707 mmHg 72%
    16:00 +27°C° 0.7 mm 2 m/s 707 mmHg 73%
    17:00 +26°C° 0 mm 2 m/s 707 mmHg 77%
    18:00 +25°C° 0 mm 1 m/s 708 mmHg 82%
    19:00 +24°C° 0 mm 1 m/s 708 mmHg 86%
    20:00 +24°C° 0 mm 1 m/s 708 mmHg 87%
    21:00 +23°C° 0 mm 1 m/s 709 mmHg 88%
    22:00 +23°C° 0 mm 1 m/s 709 mmHg 88%
    23:00 +23°C° 0 mm 1 m/s 709 mmHg 89%

    19 Octobre, Vendredi

    Heure Température Précipitation Vent Pression Humidité
    00:00 +23°C° 0 mm 1 m/s 708 mmHg 90%
    01:00 +22°C° 0 mm 1 m/s 708 mmHg 91%
    02:00 +22°C° 0 mm 1 m/s 708 mmHg 91%
    03:00 +21°C° 0 mm 2 m/s 708 mmHg 90%
    04:00 +21°C° 0 mm 2 m/s 707 mmHg 90%
    05:00 +23°C° 0 mm 2 m/s 708 mmHg 88%
    06:00 +23°C° 0 mm 2 m/s 709 mmHg 86%
    07:00 +24°C° 0 mm 2 m/s 709 mmHg 83%
    08:00 +26°C° 0.1 mm 2 m/s 710 mmHg 75%
    09:00 +28°C° 0.1 mm 2 m/s 710 mmHg 67%
    10:00 +30°C° 0.1 mm 2 m/s 711 mmHg 59%
    11:00 +31°C° 1.6 mm 1 m/s 710 mmHg 59%
    12:00 +31°C° 1.6 mm 1 m/s 709 mmHg 59%
    13:00 +32°C° 1.6 mm 1 m/s 708 mmHg 58%
    14:00 +31°C° 1.1 mm 1 m/s 708 mmHg 61%
    15:00 +30°C° 1.1 mm 1 m/s 708 mmHg 64%
    16:00 +29°C° 1.1 mm 2 m/s 708 mmHg 66%
    17:00 +28°C° 0.1 mm 1 m/s 708 mmHg 71%
    18:00 +26°C° 0.1 mm 1 m/s 708 mmHg 75%
    19:00 +25°C° 0.1 mm 1 m/s 709 mmHg 80%
    20:00 +24°C° 0.2 mm 1 m/s 709 mmHg 81%
    21:00 +24°C° 0.2 mm 1 m/s 709 mmHg 83%
    22:00 +23°C° 0.2 mm 1 m/s 709 mmHg 85%
    23:00 +23°C° 0 mm 1 m/s 709 mmHg 86%

    20 Octobre, Samedi

    Heure Température Précipitation Vent Pression Humidité
    00:00 +23°C° 0 mm 1 m/s 708 mmHg 87%
    01:00 +22°C° 0 mm 1 m/s 708 mmHg 88%
    02:00 +22°C° 0 mm 1 m/s 708 mmHg 89%
    03:00 +22°C° 0 mm 1 m/s 708 mmHg 89%
    04:00 +22°C° 0 mm 1 m/s 708 mmHg 89%
    05:00 +23°C° 0 mm 1 m/s 709 mmHg 87%
    06:00 +23°C° 0 mm 1 m/s 709 mmHg 86%
    07:00 +24°C° 0 mm 1 m/s 710 mmHg 84%
    08:00 +26°C° 0.1 mm 1 m/s 710 mmHg 77%
    09:00 +28°C° 0.1 mm 1 m/s 711 mmHg 70%
    10:00 +29°C° 0.1 mm 1 m/s 711 mmHg 63%
    11:00 +30°C° 0.9 mm 1 m/s 710 mmHg 61%
    12:00 +31°C° 0.9 mm 1 m/s 709 mmHg 58%
    13:00 +31°C° 0.9 mm 1 m/s 708 mmHg 56%
    14:00 +31°C° 0.1 mm 1 m/s 708 mmHg 57%
    15:00 +31°C° 0.1 mm 1 m/s 708 mmHg 57%
    16:00 +31°C° 0.1 mm 1 m/s 707 mmHg 58%
    17:00 +29°C° 0 mm 1 m/s 707 mmHg 64%
    18:00 +27°C° 0 mm 1 m/s 708 mmHg 69%
    19:00 +26°C° 0 mm 1 m/s 708 mmHg 75%
    20:00 +25°C° 0 mm 1 m/s 708 mmHg 77%
    21:00 +25°C° 0 mm 1 m/s 708 mmHg 79%
    22:00 +24°C° 0 mm 1 m/s 709 mmHg 81%
    23:00 +24°C° 0 mm 1 m/s 708 mmHg 82%

    21 Octobre, Dimanche

    Heure Température Précipitation Vent Pression Humidité
    00:00 +24°C° 0 mm 1 m/s 708 mmHg 82%
    01:00 +24°C° 0 mm 1 m/s 707 mmHg 82%
    02:00 +24°C° 0 mm 1 m/s 707 mmHg 83%
    03:00 +23°C° 0 mm 1 m/s 707 mmHg 83%
    04:00 +21°C° 0 mm 0 m/s 707 mmHg 83%
    05:00 +22°C° 0 mm 0 m/s 708 mmHg 80%
    06:00 +23°C° 0 mm 0 m/s 708 mmHg 77%
    07:00 +24°C° 0 mm 0 m/s 709 mmHg 75%
    08:00 +28°C° 0.1 mm 1 m/s 709 mmHg 67%
    09:00 +30°C° 0.1 mm 1 m/s 709 mmHg 60%
    10:00 +32°C° 0.1 mm 2 m/s 709 mmHg 53%
    11:00 +34°C° 0.3 mm 2 m/s 709 mmHg 50%
    12:00 +35°C° 0.3 mm 2 m/s 708 mmHg 47%
    13:00 +35°C° 0.3 mm 2 m/s 707 mmHg 45%
    14:00 +35°C° 0 mm 2 m/s 707 mmHg 46%
    15:00 +35°C° 0 mm 2 m/s 706 mmHg 47%
    16:00 +35°C° 0 mm 2 m/s 706 mmHg 48%
    17:00 +32°C° 0.1 mm 1 m/s 706 mmHg 54%
    18:00 +30°C° 0.1 mm 1 m/s 707 mmHg 60%
    19:00 +28°C° 0.1 mm 1 m/s 707 mmHg 66%
    20:00 +27°C° 0 mm 1 m/s 707 mmHg 68%
    21:00 +27°C° 0 mm 1 m/s 707 mmHg 71%
    22:00 +24°C° 0 mm 0 m/s 707 mmHg 73%
    23:00 +24°C° 0.2 mm 0 m/s 707 mmHg 75%
    Voir plus